Satellite: NOAA-11 Catalog number: 19531 Epoch time: 13150.49279178 Element set: 375 Inclination: 098.7111 deg RA of node: 233.9425 deg Eccentricity: 0.0010202 Arg of perigee: 315.0501 deg Mean anomaly: 115.1070 deg Mean motion: 14.15016761 rev/day Decay rate: 1.7e-07 rev/day^2 Epoch rev: 27362 Checksum: 254
Satellite: NOAA-12 Catalog number: 21263 Epoch time: 13150.50642311 Element set: 845 Inclination: 098.6978 deg RA of node: 176.0323 deg Eccentricity: 0.0012692 Arg of perigee: 270.0917 deg Mean anomaly: 212.7038 deg Mean motion: 14.25567047 rev/day Decay rate: 7.9e-07 rev/day^2 Epoch rev: 14603 Checksum: 286
Satellite: MET-3/5 Catalog number: 21655 Epoch time: 13150.77742115 Element set: 702 Inclination: 082.5571 deg RA of node: 266.5902 deg Eccentricity: 0.0013967 Arg of perigee: 169.0794 deg Mean anomaly: 191.0635 deg Mean motion: 13.17051153 rev/day Decay rate: -4.07e-06 rev/day^2 Epoch rev: 4764 Checksum: 295
Satellite: MET-2/21 Catalog number: 22782 Epoch time: 13150.83996620 Element set: 752 Inclination: 082.5489 deg RA of node: 116.6851 deg Eccentricity: 0.0021119 Arg of perigee: 256.5146 deg Mean anomaly: 165.2197 deg Mean motion: 13.83705750 rev/day Decay rate: 6.1e-07 rev/day^2 Epoch rev: 99724 Checksum: 319
Satellite: OKEAN-4 Catalog number: 23317 Epoch time: 13150.87255118 Element set: 232 Inclination: 082.5405 deg RA of node: 066.0012 deg Eccentricity: 0.0019492 Arg of perigee: 283.6997 deg Mean anomaly: 143.2702 deg Mean motion: 14.84466811 rev/day Decay rate: 8.12e-06 rev/day^2 Epoch rev: 637 Checksum: 281
Satellite: NOAA-14 Catalog number: 23455 Epoch time: 13150.46553773 Element set: 329 Inclination: 098.8031 deg RA of node: 235.1723 deg Eccentricity: 0.0010111 Arg of perigee: 054.1278 deg Mean anomaly: 077.9208 deg Mean motion: 14.13908204 rev/day Decay rate: 1.4e-07 rev/day^2 Epoch rev: 94986 Checksum: 288
Satellite: NOAA-15 Catalog number: 25338 Epoch time: 13150.47413110 Element set: 748 Inclination: 098.7229 deg RA of node: 140.7767 deg Eccentricity: 0.0010988 Arg of perigee: 173.4395 deg Mean anomaly: 338.3125 deg Mean motion: 14.25222775 rev/day Decay rate: 1.73e-06 rev/day^2 Epoch rev: 78232 Checksum: 309
Satellite: RESURS Catalog number: 25394 Epoch time: 13150.86705091 Element set: 387 Inclination: 098.3597 deg RA of node: 127.5381 deg Eccentricity: 0.0000500 Arg of perigee: 006.2866 deg Mean anomaly: 049.3768 deg Mean motion: 14.24331784 rev/day Decay rate: -1.0e-08 rev/day^2 Epoch rev: 77389 Checksum: 309
Satellite: FENGYUN1 Catalog number: 25730 Epoch time: 13149.87568885 Element set: 883 Inclination: 098.8761 deg RA of node: 109.6134 deg Eccentricity: 0.0026716 Arg of perigee: 096.6420 deg Mean anomaly: 316.9325 deg Mean motion: 14.10516821 rev/day Decay rate: 1.075e-05 rev/day^2 Epoch rev: 72346 Checksum: 323
Satellite: OKEAN-0 Catalog number: 25860 Epoch time: 13150.48676648 Element set: 958 Inclination: 097.9882 deg RA of node: 113.1753 deg Eccentricity: 0.0001500 Arg of perigee: 132.7935 deg Mean anomaly: 015.7039 deg Mean motion: 14.74600543 rev/day Decay rate: 4.21e-06 rev/day^2 Epoch rev: 74574 Checksum: 305
Satellite: NOAA-16 Catalog number: 26536 Epoch time: 13150.43406568 Element set: 228 Inclination: 099.0443 deg RA of node: 203.0230 deg Eccentricity: 0.0010908 Arg of perigee: 180.4385 deg Mean anomaly: 305.5893 deg Mean motion: 14.12878396 rev/day Decay rate: 2.03e-06 rev/day^2 Epoch rev: 65406 Checksum: 291
Satellite: NOAA-17 Catalog number: 27453 Epoch time: 13150.44725206 Element set: 146 Inclination: 098.3124 deg RA of node: 165.4695 deg Eccentricity: 0.0011272 Arg of perigee: 212.0862 deg Mean anomaly: 251.0266 deg Mean motion: 14.24592054 rev/day Decay rate: 9.0e-07 rev/day^2 Epoch rev: 56819 Checksum: 284
Satellite: NOAA-18 Catalog number: 28654 Epoch time: 13150.44944602 Element set: 630 Inclination: 099.0976 deg RA of node: 118.4127 deg Eccentricity: 0.0013271 Arg of perigee: 257.3045 deg Mean anomaly: 261.7896 deg Mean motion: 14.11821819 rev/day Decay rate: 4.9e-07 rev/day^2 Epoch rev: 41355 Checksum: 307
Satellite: NOAA-19 Catalog number: 33591 Epoch time: 13150.46032184 Element set: 816 Inclination: 098.9023 deg RA of node: 092.6656 deg Eccentricity: 0.0015188 Arg of perigee: 118.4869 deg Mean anomaly: 019.1888 deg Mean motion: 14.11506914 rev/day Decay rate: 1.91e-06 rev/day^2 Epoch rev: 22199 Checksum: 320
/EX SB KEPS @ AMSAT $ORB13150.M Orbital Elements 13150.MISC
HR AMSAT ORBITAL ELEMENTS FOR MANNED AND MISCELLANEOUS SATELLITES FROM WA5QGD FORT WORTH,TX May 30, 2013 BID: ORB13150.M TO ALL RADIO AMATEURS BT
Satellite: HUBBLE Catalog number: 20580 Epoch time: 13150.80758351 Element set: 251 Inclination: 028.4712 deg RA of node: 026.7633 deg Eccentricity: 0.0003064 Arg of perigee: 161.9075 deg Mean anomaly: 284.6081 deg Mean motion: 15.03645162 rev/day Decay rate: 1.749e-05 rev/day^2 Epoch rev: 6707 Checksum: 274
Satellite: ISS Catalog number: 25544 Epoch time: 13150.89969907 Element set: 907 Inclination: 051.6478 deg RA of node: 194.0638 deg Eccentricity: 0.0010208 Arg of perigee: 016.2187 deg Mean anomaly: 328.1468 deg Mean motion: 15.50595058 rev/day Decay rate: 8.308e-05 rev/day^2 Epoch rev: 83201 Checksum: 317
Satellite: CO-58 Catalog number: 28895 Epoch time: 13150.61887254 Element set: 488 Inclination: 097.8725 deg RA of node: 006.7992 deg Eccentricity: 0.0018827 Arg of perigee: 134.9184 deg Mean anomaly: 225.3549 deg Mean motion: 14.61109356 rev/day Decay rate: 5.61e-06 rev/day^2 Epoch rev: 40437 Checksum: 349
Satellite: FALCON Catalog number: 30776 Epoch time: 13150.84041661 Element set: 624 Inclination: 035.4314 deg RA of node: 308.6814 deg Eccentricity: 0.0001291 Arg of perigee: 194.3339 deg Mean anomaly: 311.8671 deg Mean motion: 15.10566853 rev/day Decay rate: 4.765e-05 rev/day^2 Epoch rev: 34279 Checksum: 292
Satellite: MAST Catalog number: 31126 Epoch time: 13150.88051830 Element set: 767 Inclination: 097.8800 deg RA of node: 147.7910 deg Eccentricity: 0.0094771 Arg of perigee: 106.6748 deg Mean anomaly: 318.2158 deg Mean motion: 14.54562848 rev/day Decay rate: 6.02e-06 rev/day^2 Epoch rev: 32480 Checksum: 306
Satellite: CAPE1 Catalog number: 31130 Epoch time: 13149.94123759 Element set: 774 Inclination: 097.8968 deg RA of node: 143.2509 deg Eccentricity: 0.0102108 Arg of perigee: 124.8480 deg Mean anomaly: 236.2372 deg Mean motion: 14.53471869 rev/day Decay rate: 7.70e-06 rev/day^2 Epoch rev: 32412 Checksum: 303
Satellite: COMPASS Catalog number: 32787 Epoch time: 13150.75868015 Element set: 636 Inclination: 097.7541 deg RA of node: 209.7724 deg Eccentricity: 0.0014387 Arg of perigee: 007.4158 deg Mean anomaly: 352.7267 deg Mean motion: 14.85465135 rev/day Decay rate: 2.261e-05 rev/day^2 Epoch rev: 27537 Checksum: 321
Satellite: AAUSAT2 Catalog number: 32788 Epoch time: 13150.16667097 Element set: 622 Inclination: 097.7548 deg RA of node: 209.8098 deg Eccentricity: 0.0013988 Arg of perigee: 009.2098 deg Mean anomaly: 350.9371 deg Mean motion: 14.85922255 rev/day Decay rate: 2.168e-05 rev/day^2 Epoch rev: 27532 Checksum: 340
Satellite: DO-64 Catalog number: 32789 Epoch time: 13150.83418101 Element set: 651 Inclination: 097.7693 deg RA of node: 214.1318 deg Eccentricity: 0.0013080 Arg of perigee: 359.7602 deg Mean anomaly: 053.0405 deg Mean motion: 14.88499211 rev/day Decay rate: 3.536e-05 rev/day^2 Epoch rev: 27554 Checksum: 305
Satellite: CO-66 Catalog number: 32791 Epoch time: 13150.17972292 Element set: 620 Inclination: 097.7544 deg RA of node: 208.5954 deg Eccentricity: 0.0014819 Arg of perigee: 010.0462 deg Mean anomaly: 023.5015 deg Mean motion: 14.84610927 rev/day Decay rate: 1.447e-05 rev/day^2 Epoch rev: 27520 Checksum: 295
Satellite: RS-30 Catalog number: 32953 Epoch time: 13150.75577304 Element set: 899 Inclination: 082.5024 deg RA of node: 079.0309 deg Eccentricity: 0.0017414 Arg of perigee: 273.0601 deg Mean anomaly: 086.8491 deg Mean motion: 12.43034286 rev/day Decay rate: 1.0e-07 rev/day^2 Epoch rev: 22774 Checksum: 287
Satellite: METEOR-M Catalog number: 35865 Epoch time: 13150.70402815 Element set: 495 Inclination: 098.6033 deg RA of node: 203.5553 deg Eccentricity: 0.0003229 Arg of perigee: 114.2385 deg Mean anomaly: 245.9117 deg Mean motion: 14.21887215 rev/day Decay rate: 9.0e-08 rev/day^2 Epoch rev: 19198 Checksum: 291
Satellite: RS-38 Catalog number: 35869 Epoch time: 13150.74032524 Element set: 458 Inclination: 098.5984 deg RA of node: 203.5120 deg Eccentricity: 0.0005302 Arg of perigee: 118.2408 deg Mean anomaly: 241.9300 deg Mean motion: 14.22130572 rev/day Decay rate: 8.3e-07 rev/day^2 Epoch rev: 19201 Checksum: 267
Satellite: JUGNU Catalog number: 37839 Epoch time: 13150.84534058 Element set: 397 Inclination: 019.9628 deg RA of node: 051.8590 deg Eccentricity: 0.0019118 Arg of perigee: 092.3128 deg Mean anomaly: 327.0136 deg Mean motion: 14.12157516 rev/day Decay rate: 4.16e-06 rev/day^2 Epoch rev: 8444 Checksum: 299
Satellite: SRMSAT Catalog number: 37841 Epoch time: 13150.88182699 Element set: 399 Inclination: 019.9730 deg RA of node: 063.3492 deg Eccentricity: 0.0012027 Arg of perigee: 047.6644 deg Mean anomaly: 023.2639 deg Mean motion: 14.10227013 rev/day Decay rate: 3.83e-06 rev/day^2 Epoch rev: 8432 Checksum: 290
Satellite: RAX-2 Catalog number: 37853 Epoch time: 13149.69289630 Element set: 514 Inclination: 101.7160 deg RA of node: 354.7569 deg Eccentricity: 0.0235578 Arg of perigee: 080.5248 deg Mean anomaly: 345.3874 deg Mean motion: 14.83523269 rev/day Decay rate: 4.729e-05 rev/day^2 Epoch rev: 8570 Checksum: 339
